Regional Weather Roundup
Issued by NWS

Home | Current Version | Previous Version | Graphics & Text | Print | Product List | Glossary On
Versions: 1 2 3 4 5 6 7 8 9 10 11 12 13 14 15 16 17 18 19 20 21 22 23 24 25 26 27 28 29 30 31 32 33 34 35 36 37 38 39 40 41 42 43 44 45 46 47 48 49 50
000
ASUS43 KBIS 271101
RWRND

NORTH DAKOTA REGIONAL WEATHER ROUNDUP
NATIONAL WEATHER SERVICE BISMARCK ND
600 AM CDT WED MAY 27 2015

NOTE: "FAIR" INDICATES FEW OR NO CLOUDS BELOW 12,000 FEET WITH NO
SIGNIFICANT WEATHER AND/OR OBSTRUCTIONS TO VISIBILITY.


NDZ001>003-009>011-017-271200-
NORTHWEST NORTH DAKOTA

CITY           SKY/WX    TMP DP  RH WIND       PRES   REMARKS
WILLISTON      CLEAR     51  44  77 SW3       29.92R
MINOT          CLEAR     58  45  62 SW10      29.89R
MINOT AFB      CLEAR     56  53  91 W9        29.88S
$$

NDZ018>021-031>035-040>046-271200-
SOUTHWEST NORTH DAKOTA

CITY           SKY/WX    TMP DP  RH WIND       PRES   REMARKS
BISMARCK       CLEAR     53  49  86 W3        29.95R
DICKINSON      CLEAR     49  43  80 CALM      29.94S
GARRISON         N/A     56  47  71 CALM      29.92R
HETTINGER ARPT CLEAR     43  40  89 CALM      29.97S
$$

NDZ004>008-012>016-024-026-027-054-271200-
NORTHEAST NORTH DAKOTA

CITY           SKY/WX    TMP DP  RH WIND       PRES   REMARKS
GRAND FORKS    PTCLDY    57  50  77 N14       29.86R
GRND FRKS AFB  PTCLDY    57  49  76 N9        29.88R
DEVILS LAKE    CLEAR     54  46  76 W5        29.91R
$$

NDZ022-023-025-028>030-036>039-047>053-271200-
SOUTHEAST NORTH DAKOTA

CITY           SKY/WX    TMP DP  RH WIND       PRES   REMARKS
FARGO          CLEAR     56  48  74 SW3       29.86R
JAMESTOWN      CLEAR     57  48  72 W9        29.90R
$$




USA.gov is the U.S. government's official web portal to all federal, state and local government web resources and services.